Hourly Data Report for February 13, 2019

TORONTO CITY
ONTARIO
Current Station Operator: ECCC - MSC

43°40'00.000" N
79°24'00.000" W
112.50 m
6158355
71508
XTO

Download Data

Hourly Data (February 2019)
Hourly Data Report for February 13, 2019
TIME
LST
Temp Definition
°C
Dew Point Definition
°C
Rel Hum Definition
%
Precip. Amount Definition
mm

Wind Dir Definition
10's deg

Wind Spd Definition
km/h
Visibility Definition
km
Stn Press Definition
kPa
Hmdx Definition


Wind Chill Definition


Weather Definition


00:00 1.3 0.7 96 1.7 LegendMM LegendMM   98.29     LegendNANA
01:00 1.5 0.7 94 1.3 LegendMM LegendMM   98.30     LegendNANA
02:00 0.9 -1.4 85 0.5 LegendMM LegendMM   98.34     LegendNANA
03:00 0.6 -2.9 77 0.0 LegendMM LegendMM   98.34     LegendNANA
04:00 -0.1 -3.3 79 0.0 LegendMM LegendMM   98.35     LegendNANA
05:00 -0.7 -3.0 84 0.0 LegendMM LegendMM   98.39     LegendNANA
06:00 -0.9 -3.9 80 0.0 LegendMM LegendMM   98.42     LegendNANA
07:00 -1.2 -3.9 82 0.0 LegendMM LegendMM   98.45     LegendNANA
08:00 -1.8 -3.6 87 0.2 LegendMM LegendMM   98.49     LegendNANA
09:00 -2.5 -3.5 93 0.8 LegendMM LegendMM   98.55     LegendNANA
10:00 -2.5 -4.2 88 0.3 LegendMM LegendMM   98.56     LegendNANA
11:00 -2.6 -4.9 84 0.0 LegendMM LegendMM   98.63     LegendNANA
12:00 -2.1 -5.5 77 0.2 LegendMM LegendMM   98.67     LegendNANA
13:00 -4.3 -5.9 89 0.6 LegendMM LegendMM   98.73     LegendNANA
14:00 -2.7 -8.8 63 0.6 LegendMM LegendMM   98.76     LegendNANA
15:00 -2.6 -8.6 63 0.0 LegendMM LegendMM   98.82     LegendNANA
16:00 -2.7 -9.3 60 0.0 LegendMM LegendMM   98.91     LegendNANA
17:00 -3.2 -8.7 66 0.0 LegendMM LegendMM   99.00     LegendNANA
18:00 -3.3 -7.7 72 0.0 LegendMM LegendMM   99.06     LegendNANA
19:00 -3.4 -8.6 67 0.0 LegendMM LegendMM   99.16     LegendNANA
20:00 -3.5 -8.5 68 0.0 LegendMM LegendMM   99.25     LegendNANA
21:00 -3.5 -8.3 69 0.0 LegendMM LegendMM   99.33     LegendNANA
22:00 -3.6 -7.7 73 0.0 LegendMM LegendMM   99.42     LegendNANA
23:00 -3.6 -7.4 75 0.0 LegendMM LegendMM   99.51     LegendNANA

Notes on Data Quality.

Legend

  • E = Estimated
  • M = Missing
  • NA = Not Available*
  • [empty] = Indicates an unobserved value
Date modified: